Regional Weather Roundup
Issued by NWS

Home | Current Version | Previous Version | Graphics & Text | Print | Product List | Glossary On
Versions: 1 2 3 4 5 6 7 8 9 10 11 12 13 14 15 16 17 18 19 20 21 22 23 24 25 26 27 28 29 30 31 32 33 34 35 36 37 38 39 40 41 42 43 44 45 46 47 48 49 50
000
ASUS43 KFSD 160710
RWRSD

WEATHER ROUNDUP FOR SOUTH DAKOTA
NATIONAL WEATHER SERVICE SIOUX FALLS SD
100 AM CST TUE JAN 16 2018

NOTE: "FAIR" INDICATES FEW OR NO CLOUDS BELOW 12,000 FEET WITH NO
SIGNIFICANT WEATHER AND/OR OBSTRUCTIONS TO VISIBILITY.


SDZ001>005-009-010-012>017-160800-
NORTHWEST AND NORTH CENTRAL SOUTH DAKOTA

CITY           SKY/WX    TMP DP  RH WIND       PRES   REMARKS
BUFFALO          N/A    -20 -24  82 SE7       30.57F WCI -37
FAITH            N/A    -16 -19  87 W7        30.72F WCI -32
MOBRIDGE       PTCLDY   -10 -17  71 NW6       30.77F WCI -23
$$

SDZ012>016-024>037-041>051-057-063-072>074-160800-
SOUTHWEST AND SOUTH CENTRAL SOUTH DAKOTA

CITY           SKY/WX    TMP DP  RH WIND       PRES   REMARKS
RAPID CTY ARPT CLEAR     -9 -13  83 W7        30.67F WCI -24
PIERRE         CLEAR     -8 -14  74 NW6       30.81S WCI -21
CUSTER         CLEAR     -4 -26  34 W6        30.42F WCI -16
ELLSWORTH AFB  CLEAR    -10 -14  82 SW5       30.65F WCI -22
PHILIP         CLEAR    -12 -17  78 NW8       30.79F WCI -29
PINE RIDGE     CLEAR    -18 -23  77 CALM      30.68F
SPEARFISH        N/A     -4 -15  59 S7        30.58F WCI -18
WINNER         FAIR      -5 -12  72 NW14      30.77F WCI -25
$$

SDZ004>011-016>023-039-040-160800-
NORTHEAST SOUTH DAKOTA

CITY           SKY/WX    TMP DP  RH WIND       PRES   REMARKS
ABERDEEN       CLOUDY    -8 -15  71 N10       30.81F WCI -26
WATERTOWN      CLOUDY    -8 -12  83 N14       30.67S WCI -29
BROOKINGS      CLOUDY    -6 -11  79 N15       30.66  WCI -27
SISSETON         N/A     -8 -13  78 NW20      30.76S WCI -32
$$

SDZ017-020-022-023-036>040-048>070-160800-
SOUTHEAST SOUTH DAKOTA

CITY           SKY/WX    TMP DP  RH WIND       PRES   REMARKS
SIOUX FALLS    CLOUDY    -3  -8  79 NW13      30.68S WCI -22
HURON          CLOUDY    -7 -13  75 N14G23    30.80S WCI -28
CHAMBERLAIN    MOCLDY    -4 -12  70 NW15      30.79F WCI -25
MITCHELL       CLOUDY    -3 -10  72 N21G26    30.79R WCI -26
YANKTON        FLURRIES  -3  -9  75 NW18      30.74S WCI -25
$$

ABBREVIATIONS USED IN REMARKS
   TC - TEMPERATURE IN CELSIUS
  WCI - WIND CHILL INDEX
   HX - HEAT INDEX
  VSB - VISIBILITY




USA.gov is the U.S. government's official web portal to all federal, state and local government web resources and services.